{"data":{"norad_id":51946,"intl_designator":"2022-023A","name":"2022-023A","alt_names":[],"object_type":"PAYLOAD","status":"ACTIVE","operator":null,"country":"PRC","launch_date":"2022-03-05","launch_site_code":"XICLF","launch_vehicle":null,"mission":null,"orbit_class":"UNKNOWN","rcs_meters":null,"size_class":null,"mass_kg":null,"dimensions":null,"purposes":[],"wikipedia_slug":null,"has_3d_model":false,"image_url":null,"decayed_at":null,"tle_current":{"epoch":"2026-09-20T22:54:30.633408Z","epoch_age_seconds":79514,"freshness":"FRESH","line1":"1 51946U 22023A   26263.95452122  .00015919  00000+0  65336-3 0  9993","line2":"2 51946  63.4775 305.2881 0119448 346.1891  13.5962 15.18044614252251","mean_motion":15.18044614,"eccentricity":0.0119448,"inclination_deg":63.4775,"raan_deg":305.2881,"arg_perigee_deg":346.1891,"mean_anomaly_deg":13.5962,"bstar":0.00065336,"rev_number":25225,"period_min":94.858872178048,"perigee_km":429.45249236372,"apogee_km":594.04915653469,"semimajor_km":6889.8878244492,"source":"CELESTRAK","updated_at":"2026-09-21T09:00:08.414898Z"}}}